Hourly Data Report for October 02, 2017

All times are specified in Local Standard Time (LST). Add 1 hour to adjust for Daylight Saving Time where and when it is observed.

GILLAM A
MANITOBA

56°21'28.000" N
94°42'39.000" W
145.10 m
5061022
71912
YGX

Download Data

Hourly Data (October 2017)
Hourly Data Report for October 2, 2017
Temp Definition
°C
Dew Point Temp Definition
°C
Rel Hum Definition
%
Wind Dir Definition
10's deg

Wind Spd Definition
km/h
Visibility Definition
km
Stn Press Definition
kPa
Hmdx Definition


Wind Chill Definition


Weather Definition


TIME
00:00 Legend Double Dagger 10.6 9.0 90 10 8 24.1 98.99     Cloudy
01:00 Legend Double Dagger 11.0 10.4 96 10 6 19.3 98.95     Drizzle
02:00 Legend Double Dagger 11.6 11.2 97 11 6 16.1 98.88     Rain
03:00 Legend Double Dagger 12.4 12.1 98 12 8 16.1 98.82     Rain
04:00 Legend Double Dagger 12.5 12.1 97 13 8 16.1 98.78     Rain
05:00 Legend Double Dagger 12.4 12.0 97 14 12 24.1 98.78     Drizzle
06:00 Legend Double Dagger 12.3 11.9 97 14 9 8.1 98.72     Drizzle,Fog
07:00 Legend Double Dagger 12.2 11.8 98 13 5 6.4 98.68     Rain,Fog
08:00 Legend Double Dagger 12.5 12.1 98 14 6 9.7 98.70     Rain,Drizzle,Fog
09:00 Legend Double Dagger 12.6 12.2 97 17 8 2.4 98.73     Drizzle
10:00 Legend Double Dagger 13.0 12.5 96 18 9 19.3 98.72     Drizzle
11:00 Legend Double Dagger 13.1 12.5 96 21 8 20.9 98.71     Drizzle
12:00 Legend Double Dagger 13.8 13.2 96 25 8 3.2 98.66     Drizzle
13:00 Legend Double Dagger 13.6 12.8 95 31 10 24.1 98.67     LegendNANA
14:00 Legend Double Dagger 13.8 12.7 93 29 11 24.1 98.68     LegendNANA
15:00 Legend Double Dagger 14.1 12.9 93 26 7 24.1 98.76     Cloudy
16:00 Legend Double Dagger 12.9 12.4 97 30 5 9.7 98.79     Drizzle
17:00 Legend Double Dagger 10.7 10.1 96 36 32 0.6 98.89     Rain,Moderate Drizzle
18:00 Legend Double Dagger 8.3 7.5 95 2 39 0.6 99.03     Rain,Moderate Drizzle
19:00 Legend Double Dagger 6.9 5.7 92 3 26 4.8 99.17     Rain,Drizzle
20:00 Legend Double Dagger 5.5 4.8 96 1 31 4.8 99.26     Rain,Drizzle
21:00 Legend Double Dagger 4.3 3.5 95 2 31 4.8 99.36     Rain,Drizzle,Fog
22:00 Legend Double Dagger 3.6 2.6 93 3 29 4.8 99.48     Rain,Fog
23:00 Legend Double Dagger 3.1 2.3 94 1 35 4.8 99.57     Rain,Fog

Notes on Data Quality.

Legend

  • E = Estimated
  • M = Missing
  • NA = Not Available
  • ‡ = Partner data that is not subject to review by the National Climate Archives
Date modified: